| time (UTC) | temp F | wind direction | speed knots | gust knots | rain 1hr in | rain 24hr in | rain mn in | humidity % | barometer mb |
| 20260906121630 | 69 | 90 | 0.0 | 1.7 | 0.00 | 0.00 | 0.00 | 99 | 1017.0 |
| 20260906121126 | 69 | 63 | 0.0 | 1.7 | 0.00 | 0.00 | 0.00 | 99 | 1016.7 |
| 20260906120621 | 69 | 98 | 0.0 | 0.9 | 0.00 | 0.00 | 0.00 | 99 | 1016.8 |
| 20260906120119 | 69 | 90 | 0.0 | 0.0 | 0.00 | 0.00 | 0.00 | 99 | 1016.7 |
| 20260906115619 | 68 | 74 | 0.0 | 0.0 | 0.00 | 0.00 | 0.00 | 99 | 1016.8 |
| 20260906115115 | 68 | 90 | 0.0 | 0.0 | 0.00 | 0.00 | 0.00 | 99 | 1016.6 |
| 20260906114614 | 68 | 96 | 0.9 | 1.7 | 0.00 | 0.00 | 0.00 | 99 | 1016.4 |
| 20260906114109 | 68 | 96 | 0.0 | 0.9 | 0.00 | 0.00 | 0.00 | 99 | 1016.2 |
| 20260906113608 | 68 | 84 | 1.7 | 1.7 | 0.00 | 0.00 | 0.00 | 99 | 1016.2 |
| 20260906113104 | 68 | 90 | 1.7 | 2.6 | 0.00 | 0.00 | 0.00 | 99 | 1016.4 |
| 20260906112603 | 68 | 66 | 0.0 | 0.9 | 0.00 | 0.00 | 0.00 | 99 | 1016.4 |
| 20260906112100 | 68 | 90 | 0.0 | 0.9 | 0.00 | 0.00 | 0.00 | 99 | 1016.1 |
| 20260906111559 | 68 | 90 | 0.0 | 0.9 | 0.00 | 0.00 | 0.00 | 99 | 1015.9 |
| 20260906111055 | 68 | 90 | 0.0 | 0.0 | 0.00 | 0.00 | 0.00 | 99 | 1015.8 |
| 20260906110554 | 68 | 90 | 0.0 | 0.9 | 0.00 | 0.00 | 0.00 | 99 | 1015.9 |
| 20260906110054 | 68 | 106 | 0.0 | 0.9 | 0.00 | 0.00 | 0.00 | 99 | 1015.8 |
| 20260906105549 | 69 | 90 | 0.0 | 1.7 | 0.00 | 0.00 | 0.00 | 99 | 1015.8 |
| 20260906105045 | 68 | 114 | 0.0 | 0.9 | 0.00 | 0.00 | 0.00 | 99 | 1015.8 |
| 20260906104543 | 69 | 106 | 0.0 | 1.7 | 0.00 | 0.00 | 0.00 | 99 | 1015.6 |
| 20260906104038 | 69 | 109 | 0.0 | 1.7 | 0.00 | 0.00 | 0.00 | 99 | 1015.4 |
| 20260906103536 | 69 | 90 | 0.0 | 0.9 | 0.00 | 0.00 | 0.00 | 99 | 1015.7 |
| 20260906103032 | 69 | 90 | 0.0 | 1.7 | 0.00 | 0.00 | 0.00 | 99 | 1015.3 |
| 20260906102531 | 69 | 90 | 0.0 | 0.0 | 0.00 | 0.00 | 0.00 | 99 | 1015.7 |
| 20260906102027 | 69 | 105 | 0.0 | 1.7 | 0.00 | 0.00 | 0.00 | 99 | 1015.4 |
| 20260906101521 | 69 | 82 | 0.0 | 0.0 | 0.00 | 0.00 | 0.00 | 99 | 1015.4 |
| 20260906101016 | 69 | 90 | 0.0 | 0.0 | 0.00 | 0.00 | 0.00 | 98 | 1015.4 |
| 20260906100512 | 69 | 83 | 0.0 | 0.9 | 0.00 | 0.00 | 0.00 | 98 | 1015.4 |
| 20260906100006 | 69 | 90 | 0.0 | 0.9 | 0.00 | 0.00 | 0.00 | 98 | 1015.4 |
| 20260906095501 | 69 | 111 | 0.0 | 0.0 | 0.00 | 0.00 | 0.00 | 98 | 1015.2 |
| 20260906094956 | 70 | 99 | 0.0 | 1.7 | 0.00 | 0.00 | 0.00 | 98 | 1015.1 |
| 20260906094455 | 69 | 90 | 1.7 | 1.7 | 0.00 | 0.00 | 0.00 | 97 | 1015.1 |
| 20260906093951 | 70 | 106 | 0.0 | 0.9 | 0.00 | 0.00 | 0.00 | 97 | 1015.2 |
| 20260906093447 | 70 | 78 | 0.0 | 1.7 | 0.00 | 0.00 | 0.00 | 97 | 1015.1 |
| 20260906092942 | 70 | 97 | 0.0 | 0.0 | 0.00 | 0.00 | 0.00 | 97 | 1015.2 |
| 20260906092442 | 70 | 74 | 0.0 | 1.7 | 0.00 | 0.00 | 0.00 | 96 | 1014.8 |
| 20260906091937 | 70 | 75 | 0.0 | 0.9 | 0.00 | 0.00 | 0.00 | 96 | 1015.0 |
| 20260906091432 | 71 | 90 | 0.0 | 1.7 | 0.00 | 0.00 | 0.00 | 96 | 1015.1 |
| 20260906090929 | 71 | 74 | 0.9 | 0.9 | 0.00 | 0.00 | 0.00 | 95 | 1015.0 |
| 20260906090424 | 71 | 114 | 0.0 | 1.7 | 0.00 | 0.00 | 0.00 | 95 | 1015.0 |
| 20260906085924 | 71 | 81 | 0.0 | 0.0 | 0.00 | 0.00 | 0.00 | 95 | 1014.9 |
| 20260906085418 | 71 | 99 | 0.0 | 1.7 | 0.00 | 0.00 | 0.00 | 94 | 1014.9 |
| 20260906084917 | 71 | 90 | 0.0 | 1.7 | 0.00 | 0.00 | 0.00 | 94 | 1015.0 |
| 20260906084412 | 71 | 96 | 0.9 | 1.7 | 0.00 | 0.00 | 0.00 | 94 | 1015.0 |
| 20260906083911 | 71 | 107 | 1.7 | 2.6 | 0.00 | 0.00 | 0.00 | 94 | 1015.1 |
| 20260906083407 | 71 | 98 | 0.9 | 3.5 | 0.00 | 0.00 | 0.00 | 93 | 1014.9 |
| 20260906082906 | 72 | 90 | 0.9 | 4.3 | 0.00 | 0.00 | 0.00 | 94 | 1015.0 |
| 20260906082401 | 71 | 98 | 0.0 | 2.6 | 0.00 | 0.00 | 0.00 | 94 | 1015.0 |
| 20260906081857 | 71 | 106 | 0.0 | 4.3 | 0.00 | 0.00 | 0.00 | 94 | 1014.9 |
| 20260906081352 | 71 | 126 | 0.0 | 2.6 | 0.00 | 0.00 | 0.00 | 94 | 1014.9 |
| 20260906080848 | 71 | 82 | 0.0 | 2.6 | 0.00 | 0.00 | 0.00 | 94 | 1015.0 |
| 20260906080345 | 71 | 90 | 3.5 | 3.5 | 0.00 | 0.00 | 0.00 | 95 | 1014.9 |
| 20260906075844 | 71 | 95 | 1.7 | 2.6 | 0.00 | 0.00 | 0.00 | 94 | 1014.8 |
| 20260906075338 | 71 | 99 | 0.0 | 2.6 | 0.00 | 0.00 | 0.00 | 94 | 1014.9 |
| 20260906074834 | 71 | 114 | 0.0 | 1.7 | 0.00 | 0.00 | 0.00 | 94 | 1015.1 |
| 20260906074334 | 71 | 90 | 0.0 | 0.9 | 0.00 | 0.00 | 0.00 | 94 | 1015.3 |
| 20260906073833 | 72 | 90 | 0.0 | 1.7 | 0.00 | 0.00 | 0.00 | 94 | 1015.3 |
| 20260906073328 | 72 | 105 | 0.9 | 3.5 | 0.00 | 0.00 | 0.00 | 93 | 1015.3 |
| 20260906072824 | 72 | 102 | 1.7 | 3.5 | 0.00 | 0.00 | 0.00 | 93 | 1015.1 |
| 20260906072320 | 72 | 102 | 1.7 | 1.7 | 0.00 | 0.00 | 0.00 | 93 | 1015.1 |
| 20260906071816 | 72 | 114 | 0.0 | 2.6 | 0.00 | 0.00 | 0.00 | 93 | 1015.3 |
| 20260906071315 | 72 | 90 | 1.7 | 3.5 | 0.00 | 0.00 | 0.00 | 92 | 1015.3 |
| 20260906070812 | 72 | 75 | 0.0 | 3.5 | 0.00 | 0.00 | 0.00 | 92 | 1015.2 |
| 20260906070308 | 72 | 102 | 1.7 | 2.6 | 0.00 | 0.00 | 0.00 | 92 | 1015.2 |
| 20260906065802 | 73 | 72 | 3.5 | 3.5 | 0.00 | 0.00 | 0.00 | 91 | 1015.3 |
| 20260906065257 | 73 | 107 | 0.0 | 2.6 | 0.00 | 0.00 | 0.00 | 91 | 1015.2 |
| 20260906064753 | 73 | 102 | 0.0 | 2.6 | 0.00 | 0.00 | 0.00 | 91 | 1015.2 |
| 20260906064249 | 73 | 90 | 0.0 | 1.7 | 0.00 | 0.00 | 0.00 | 91 | 1015.3 |
| 20260906063743 | 73 | 82 | 0.9 | 2.6 | 0.00 | 0.00 | 0.00 | 90 | 1015.4 |
| 20260906063239 | 73 | 106 | 1.7 | 2.6 | 0.00 | 0.00 | 0.00 | 90 | 1015.3 |
| 20260906062734 | 73 | 63 | 0.0 | 3.5 | 0.00 | 0.00 | 0.00 | 90 | 1015.3 |
| 20260906062233 | 73 | 102 | 1.7 | 2.6 | 0.00 | 0.00 | 0.00 | 90 | 1015.4 |
| 20260906061729 | 74 | 85 | 1.7 | 2.6 | 0.00 | 0.00 | 0.00 | 89 | 1015.3 |
| 20260906061225 | 74 | 306 | 0.9 | 2.6 | 0.00 | 0.00 | 0.00 | 89 | 1015.2 |
| 20260906060720 | 74 | 123 | 1.7 | 3.5 | 0.00 | 0.00 | 0.00 | 89 | 1015.4 |
| 20260906060218 | 74 | 90 | 0.0 | 3.5 | 0.00 | 0.00 | 0.00 | 89 | 1015.4 |
| 20260906055713 | 74 | 90 | 0.0 | 1.7 | 0.00 | 0.00 | 0.00 | 89 | 1015.3 |
| 20260906055208 | 74 | 80 | 3.5 | 3.5 | 0.00 | 0.00 | 0.00 | 89 | 1015.4 |
| 20260906054703 | 74 | 84 | 0.9 | 2.6 | 0.00 | 0.00 | 0.00 | 89 | 1015.4 |
| 20260906054158 | 74 | 90 | 0.0 | 1.7 | 0.00 | 0.00 | 0.00 | 89 | 1015.1 |
| 20260906053655 | 74 | 90 | 0.0 | 1.7 | 0.00 | 0.00 | 0.00 | 89 | 1015.2 |
| 20260906053150 | 74 | 106 | 1.7 | 3.5 | 0.00 | 0.00 | 0.00 | 89 | 1015.2 |
| 20260906052645 | 74 | 90 | 0.9 | 1.7 | 0.00 | 0.00 | 0.00 | 89 | 1015.1 |
| 20260906052142 | 74 | 67 | 1.7 | 4.3 | 0.00 | 0.00 | 0.00 | 89 | 1015.0 |
| 20260906051638 | 74 | 80 | 3.5 | 4.3 | 0.00 | 0.00 | 0.00 | 89 | 1014.8 |
| 20260906051137 | 74 | 96 | 0.0 | 4.3 | 0.00 | 0.00 | 0.00 | 89 | 1014.9 |
| 20260906050633 | 74 | 119 | 1.7 | 3.5 | 0.00 | 0.00 | 0.00 | 89 | 1014.7 |
| 20260906050128 | 74 | 97 | 2.6 | 3.5 | 0.00 | 0.00 | 0.00 | 89 | 1014.7 |
| 20260906045626 | 74 | 102 | 0.0 | 3.5 | 0.00 | 0.00 | 0.00 | 89 | 1014.8 |
| 20260906045122 | 74 | 90 | 0.0 | 2.6 | 0.00 | 0.00 | 0.00 | 89 | 1014.8 |
| 20260906044618 | 74 | 90 | 0.9 | 2.6 | 0.00 | 0.00 | 0.00 | 89 | 1014.6 |
| 20260906044112 | 74 | 81 | 1.7 | 4.3 | 0.00 | 0.00 | 0.00 | 89 | 1014.8 |
| 20260906043609 | 74 | 69 | 0.0 | 2.6 | 0.00 | 0.00 | 0.00 | 88 | 1014.5 |
| 20260906043104 | 74 | 86 | 6.1 | 6.1 | 0.00 | 0.00 | 0.00 | 88 | 1014.3 |
| 20260906042603 | 74 | 93 | 7.0 | 7.0 | 0.00 | 0.00 | 0.00 | 88 | 1014.4 |
| 20260906042058 | 74 | 82 | 3.5 | 6.1 | 0.00 | 0.00 | 0.00 | 88 | 1014.5 |
| 20260906041554 | 74 | 90 | 2.6 | 5.2 | 0.00 | 0.00 | 0.00 | 88 | 1014.3 |
| 20260906041049 | 74 | 90 | 2.6 | 6.1 | 0.00 | 0.00 | 0.00 | 88 | 1014.4 |
| 20260906040544 | 74 | 94 | 2.6 | 6.1 | 0.00 | 0.00 | 0.00 | 88 | 1014.3 |
| 20260906040039 | 74 | 97 | 0.0 | 2.6 | 0.00 | 0.00 | 0.00 | 89 | 1014.4 |
| 20260906035534 | 74 | 97 | 0.9 | 2.6 | 0.00 | 0.00 | 0.00 | 89 | 1014.1 |
| 20260906035031 | 74 | 90 | 0.9 | 3.5 | 0.00 | 0.00 | 0.00 | 89 | 1014.4 |
| 20260906034530 | 74 | 83 | 0.9 | 3.5 | 0.00 | 0.00 | 0.00 | 88 | 1014.4 |
| 20260906034025 | 74 | 74 | 0.9 | 2.6 | 0.00 | 0.00 | 0.00 | 88 | 1014.3 |
| 20260906033520 | 74 | 73 | 1.7 | 2.6 | 0.00 | 0.00 | 0.00 | 88 | 1014.2 |
| 20260906033016 | 74 | 77 | 0.0 | 1.7 | 0.00 | 0.00 | 0.00 | 88 | 1014.2 |
| 20260906032512 | 74 | 95 | 1.7 | 2.6 | 0.00 | 0.00 | 0.00 | 88 | 1014.1 |
| 20260906032007 | 74 | 90 | 4.3 | 4.3 | 0.00 | 0.00 | 0.00 | 88 | 1014.1 |
| 20260906031502 | 74 | 114 | 2.6 | 4.3 | 0.00 | 0.00 | 0.00 | 88 | 1014.1 |
| 20260906030957 | 74 | 97 | 0.9 | 1.7 | 0.00 | 0.00 | 0.00 | 88 | 1014.3 |
| 20260906030451 | 74 | 117 | 1.7 | 6.1 | 0.00 | 0.00 | 0.00 | 88 | 1014.1 |
| 20260906025946 | 74 | 97 | 3.5 | 4.3 | 0.00 | 0.00 | 0.00 | 88 | 1014.2 |
| 20260906025440 | 74 | 82 | 0.9 | 3.5 | 0.00 | 0.00 | 0.00 | 88 | 1014.4 |
| 20260906024939 | 73 | 160 | 0.0 | 5.2 | 0.00 | 0.00 | 0.00 | 88 | 1014.0 |
| 20260906024438 | 73 | 106 | 1.7 | 4.3 | 0.00 | 0.00 | 0.00 | 88 | 1014.1 |
| 20260906023933 | 73 | 105 | 0.0 | 4.3 | 0.00 | 0.00 | 0.00 | 89 | 1014.1 |
| 20260906023429 | 73 | 70 | 1.7 | 6.1 | 0.00 | 0.00 | 0.00 | 88 | 1014.2 |
| 20260906022924 | 73 | 86 | 2.6 | 6.1 | 0.00 | 0.00 | 0.00 | 88 | 1014.2 |
| 20260906022419 | 73 | 79 | 4.3 | 4.3 | 0.00 | 0.00 | 0.00 | 88 | 1014.3 |
| 20260906021915 | 73 | 104 | 2.6 | 4.3 | 0.00 | 0.00 | 0.00 | 88 | 1014.2 |
| 20260906021414 | 73 | 83 | 0.0 | 3.5 | 0.00 | 0.00 | 0.00 | 88 | 1014.3 |
| 20260906020909 | 73 | 112 | 6.1 | 9.6 | 0.00 | 0.00 | 0.00 | 87 | 1014.2 |
| 20260906020403 | 74 | 90 | 0.0 | 4.3 | 0.00 | 0.00 | 0.00 | 87 | 1014.3 |
| 20260906015858 | 74 | 114 | 2.6 | 4.3 | 0.00 | 0.00 | 0.00 | 87 | 1014.2 |
| 20260906015357 | 74 | 90 | 3.5 | 6.1 | 0.00 | 0.00 | 0.00 | 87 | 1014.2 |
| 20260906014857 | 74 | 85 | 3.5 | 4.3 | 0.00 | 0.00 | 0.00 | 86 | 1014.0 |
| 20260906014357 | 74 | 243 | 2.6 | 5.2 | 0.00 | 0.00 | 0.00 | 86 | 1014.1 |
| 20260906013853 | 74 | 87 | 2.6 | 3.5 | 0.00 | 0.00 | 0.00 | 87 | 1014.1 |
| 20260906013348 | 74 | 95 | 1.7 | 3.5 | 0.00 | 0.00 | 0.00 | 87 | 1014.1 |
| 20260906012844 | 74 | 105 | 0.9 | 5.2 | 0.00 | 0.00 | 0.00 | 87 | 1014.0 |
| 20260906012339 | 75 | 90 | 0.9 | 3.5 | 0.00 | 0.00 | 0.00 | 88 | 1014.0 |
| 20260906011838 | 75 | 71 | 2.6 | 4.3 | 0.00 | 0.00 | 0.00 | 88 | 1013.8 |
| 20260906011333 | 75 | 81 | 0.0 | 2.6 | 0.00 | 0.00 | 0.00 | 88 | 1013.9 |
| 20260906010829 | 75 | 76 | 0.0 | 3.5 | 0.00 | 0.00 | 0.00 | 88 | 1013.6 |
| 20260906010325 | 75 | 84 | 1.7 | 3.5 | 0.00 | 0.00 | 0.00 | 87 | 1013.9 |
| 20260906005821 | 75 | 97 | 4.3 | 4.3 | 0.00 | 0.00 | 0.00 | 87 | 1014.1 |
| 20260906005319 | 75 | 90 | 1.7 | 7.0 | 0.00 | 0.00 | 0.00 | 86 | 1013.6 |
| 20260906004819 | 76 | 100 | 0.0 | 6.1 | 0.00 | 0.00 | 0.00 | 86 | 1013.8 |
| 20260906004318 | 76 | 81 | 0.0 | 3.5 | 0.00 | 0.00 | 0.00 | 85 | 1013.8 |
| 20260906003814 | 76 | 90 | 0.9 | 1.7 | 0.00 | 0.00 | 0.00 | 85 | 1013.5 |
| 20260906003309 | 77 | 106 | 0.0 | 4.3 | 0.00 | 0.00 | 0.00 | 84 | 1013.5 |
| 20260906002805 | 77 | 117 | 0.0 | 4.3 | 0.00 | 0.00 | 0.00 | 84 | 1013.4 |
| 20260906002306 | 77 | 90 | 0.0 | 4.3 | 0.00 | 0.00 | 0.00 | 83 | 1013.2 |
| 20260906001800 | 78 | 92 | 6.1 | 7.8 | 0.00 | 0.00 | 0.00 | 82 | 1013.2 |
| 20260906001254 | 78 | 113 | 1.7 | 2.6 | 0.00 | 0.00 | 0.00 | 82 | 1013.2 |
| 20260906000749 | 78 | 95 | 3.5 | 4.3 | 0.00 | 0.00 | 0.00 | 81 | 1013.0 |
| 20260906000244 | 78 | 114 | 0.9 | 5.2 | 0.00 | 0.00 | 0.00 | 80 | 1013.1 |
| 20260905235739 | 79 | 87 | 3.5 | 5.2 | 0.00 | 0.00 | 0.00 | 79 | 1012.9 |
| 20260905235238 | 80 | 210 | 0.0 | 6.1 | 0.00 | 0.00 | 0.00 | 78 | 1013.0 |
| 20260905234734 | 81 | 80 | 1.7 | 4.3 | 0.00 | 0.00 | 0.00 | 77 | 1012.9 |
| 20260905234229 | 81 | 122 | 2.6 | 4.3 | 0.00 | 0.00 | 0.00 | 76 | 1013.0 |
| 20260905233725 | 82 | 76 | 0.0 | 2.6 | 0.00 | 0.00 | 0.00 | 75 | 1013.1 |
| 20260905233224 | 82 | 90 | 2.6 | 4.3 | 0.00 | 0.00 | 0.00 | 75 | 1013.0 |
| 20260905232719 | 83 | 109 | 0.0 | 2.6 | 0.00 | 0.00 | 0.00 | 75 | 1013.0 |
| 20260905232215 | 82 | 101 | 1.7 | 3.5 | 0.00 | 0.00 | 0.00 | 75 | 1012.8 |
| 20260905231710 | 83 | 90 | 2.6 | 3.5 | 0.00 | 0.00 | 0.00 | 73 | 1012.9 |
| 20260905231206 | 83 | 113 | 1.7 | 4.3 | 0.00 | 0.00 | 0.00 | 74 | 1012.9 |
| 20260905230702 | 83 | 85 | 1.7 | 3.5 | 0.00 | 0.00 | 0.00 | 73 | 1012.7 |
| 20260905230159 | 84 | 86 | 2.6 | 3.5 | 0.00 | 0.00 | 0.00 | 73 | 1012.9 |
| 20260905225659 | 83 | 111 | 0.0 | 2.6 | 0.00 | 0.00 | 0.00 | 73 | 1013.0 |
| 20260905225154 | 82 | 172 | 0.9 | 3.5 | 0.00 | 0.00 | 0.00 | 75 | 1012.8 |
| 20260905224654 | 84 | 84 | 1.7 | 4.3 | 0.00 | 0.00 | 0.00 | 74 | 1012.5 |
| 20260905224148 | 83 | 80 | 3.5 | 3.5 | 0.00 | 0.00 | 0.00 | 74 | 1012.4 |
| 20260905223645 | 83 | 97 | 2.6 | 2.6 | 0.00 | 0.00 | 0.00 | 74 | 1012.4 |
| 20260905223142 | 83 | 35 | 0.9 | 2.6 | 0.00 | 0.00 | 0.00 | 75 | 1012.6 |
| 20260905222637 | 83 | 95 | 1.7 | 6.1 | 0.00 | 0.00 | 0.00 | 74 | 1012.7 |
| 20260905222131 | 84 | 81 | 0.0 | 7.0 | 0.00 | 0.00 | 0.00 | 73 | 1012.6 |
| 20260905221627 | 84 | 103 | 0.0 | 7.0 | 0.00 | 0.00 | 0.00 | 73 | 1012.4 |
| 20260905221124 | 84 | 90 | 1.7 | 6.1 | 0.00 | 0.00 | 0.00 | 74 | 1012.6 |
| 20260905220619 | 84 | 257 | 0.0 | 6.1 | 0.00 | 0.00 | 0.00 | 75 | 1012.7 |
| 20260905220115 | 84 | 71 | 3.5 | 5.2 | 0.00 | 0.00 | 0.00 | 74 | 1012.7 |
| 20260905215614 | 84 | 110 | 1.7 | 3.5 | 0.00 | 0.00 | 0.00 | 75 | 1012.7 |
| 20260905215110 | 83 | 117 | 2.6 | 4.3 | 0.00 | 0.00 | 0.00 | 74 | 1012.4 |
| 20260905214606 | 85 | 73 | 1.7 | 3.5 | 0.00 | 0.00 | 0.00 | 73 | 1012.3 |
| 20260905214106 | 85 | 76 | 2.6 | 4.3 | 0.00 | 0.00 | 0.00 | 73 | 1012.5 |
| 20260905213601 | 86 | 77 | 1.7 | 3.5 | 0.00 | 0.00 | 0.00 | 72 | 1012.3 |
| 20260905213056 | 85 | 101 | 2.6 | 7.0 | 0.00 | 0.00 | 0.00 | 72 | 1012.2 |
| 20260905212551 | 86 | 82 | 4.3 | 4.3 | 0.00 | 0.00 | 0.00 | 71 | 1012.3 |
| 20260905212051 | 86 | 104 | 2.6 | 3.5 | 0.00 | 0.00 | 0.00 | 72 | 1012.5 |
| 20260905211546 | 86 | 125 | 0.0 | 6.1 | 0.00 | 0.00 | 0.00 | 72 | 1012.4 |
| 20260905211042 | 86 | 106 | 2.6 | 5.2 | 0.00 | 0.00 | 0.00 | 72 | 1012.3 |
| 20260905210537 | 87 | 101 | 1.7 | 5.2 | 0.00 | 0.00 | 0.00 | 72 | 1012.4 |
| 20260905210032 | 86 | 80 | 1.7 | 4.3 | 0.00 | 0.00 | 0.00 | 72 | 1012.2 |
| 20260905205531 | 87 | 60 | 2.6 | 3.5 | 0.00 | 0.00 | 0.00 | 72 | 1012.3 |
| 20260905205030 | 86 | 90 | 0.9 | 4.3 | 0.00 | 0.00 | 0.00 | 73 | 1012.2 |
| 20260905204526 | 87 | 294 | 0.9 | 2.6 | 0.00 | 0.00 | 0.00 | 73 | 1012.4 |
| 20260905204021 | 87 | 74 | 2.6 | 4.3 | 0.00 | 0.00 | 0.00 | 72 | 1012.1 |
| 20260905203521 | 86 | 86 | 2.6 | 3.5 | 0.00 | 0.00 | 0.00 | 73 | 1012.2 |
| 20260905203016 | 86 | 81 | 0.0 | 3.5 | 0.00 | 0.00 | 0.00 | 73 | 1012.1 |
| 20260905202511 | 87 | 90 | 1.7 | 5.2 | 0.00 | 0.00 | 0.00 | 72 | 1012.4 |
| 20260905202007 | 88 | 111 | 0.0 | 5.2 | 0.00 | 0.00 | 0.00 | 71 | 1012.3 |
| 20260905201502 | 87 | 90 | 0.0 | 2.6 | 0.00 | 0.00 | 0.00 | 71 | 1012.2 |
| 20260905201001 | 88 | 94 | 2.6 | 4.3 | 0.00 | 0.00 | 0.00 | 71 | 1012.3 |
| 20260905200457 | 89 | 81 | 1.7 | 3.5 | 0.00 | 0.00 | 0.00 | 69 | 1012.4 |
| 20260905195955 | 88 | 81 | 0.0 | 3.5 | 0.00 | 0.00 | 0.00 | 70 | 1012.1 |
| 20260905195451 | 88 | 107 | 2.6 | 3.5 | 0.00 | 0.00 | 0.00 | 71 | 1012.2 |
| 20260905194946 | 88 | 90 | 0.0 | 2.6 | 0.00 | 0.00 | 0.00 | 72 | 1012.2 |
| 20260905194446 | 87 | 84 | 1.7 | 3.5 | 0.00 | 0.00 | 0.00 | 72 | 1012.0 |
| 20260905193940 | 88 | 90 | 1.7 | 2.6 | 0.00 | 0.00 | 0.00 | 73 | 1012.2 |
| 20260905193435 | 87 | 81 | 1.7 | 2.6 | 0.00 | 0.00 | 0.00 | 73 | 1012.3 |
| 20260905192930 | 88 | 90 | 2.6 | 4.3 | 0.00 | 0.00 | 0.00 | 71 | 1012.4 |
| 20260905192425 | 87 | 106 | 1.7 | 3.5 | 0.00 | 0.00 | 0.00 | 73 | 1012.1 |
| 20260905191920 | 88 | 67 | 1.7 | 5.2 | 0.00 | 0.00 | 0.00 | 72 | 1012.4 |
| 20260905191419 | 88 | 90 | 0.9 | 4.3 | 0.00 | 0.00 | 0.00 | 71 | 1012.3 |
| 20260905190914 | 88 | 85 | 1.7 | 2.6 | 0.00 | 0.00 | 0.00 | 72 | 1012.4 |
| 20260905190412 | 89 | 121 | 0.0 | 6.1 | 0.00 | 0.00 | 0.00 | 69 | 1012.2 |
| 20260905185910 | 89 | 71 | 1.7 | 2.6 | 0.00 | 0.00 | 0.00 | 70 | 1012.4 |
| 20260905185406 | 88 | 72 | 2.6 | 5.2 | 0.00 | 0.00 | 0.00 | 71 | 1012.5 |
| 20260905184904 | 90 | 106 | 0.9 | 4.3 | 0.00 | 0.00 | 0.00 | 69 | 1012.7 |
| 20260905184359 | 89 | 96 | 1.7 | 4.3 | 0.00 | 0.00 | 0.00 | 70 | 1012.3 |
| 20260905183857 | 90 | 74 | 0.9 | 4.3 | 0.00 | 0.00 | 0.00 | 68 | 1012.4 |
| 20260905183352 | 90 | 74 | 0.0 | 2.6 | 0.00 | 0.00 | 0.00 | 70 | 1012.5 |
| 20260905182847 | 91 | 60 | 0.0 | 2.6 | 0.00 | 0.00 | 0.00 | 68 | 1012.5 |
| 20260905182341 | 91 | 293 | 0.0 | 4.3 | 0.00 | 0.00 | 0.00 | 68 | 1012.6 |
| 20260905181837 | 91 | 300 | 2.6 | 2.6 | 0.00 | 0.00 | 0.00 | 69 | 1012.4 |
| 20260905181337 | 90 | 90 | 0.0 | 2.6 | 0.00 | 0.00 | 0.00 | 72 | 1012.5 |
| 20260905180836 | 89 | 126 | 0.0 | 2.6 | 0.00 | 0.00 | 0.00 | 71 | 1012.7 |
| 20260905180331 | 89 | 96 | 0.0 | 2.6 | 0.00 | 0.00 | 0.00 | 72 | 1012.5 |
| 20260905175826 | 88 | 78 | 0.0 | 1.7 | 0.00 | 0.00 | 0.00 | 73 | 1012.5 |
| 20260905175326 | 88 | 84 | 0.0 | 4.3 | 0.00 | 0.00 | 0.00 | 72 | 1012.6 |
| 20260905174821 | 89 | 86 | 2.6 | 4.3 | 0.00 | 0.00 | 0.00 | 70 | 1012.5 |
| 20260905174317 | 89 | 332 | 2.6 | 2.6 | 0.00 | 0.00 | 0.00 | 71 | 1012.6 |
| 20260905173812 | 89 | 105 | 0.9 | 1.7 | 0.00 | 0.00 | 0.00 | 73 | 1012.5 |
| 20260905173308 | 88 | 99 | 0.0 | 3.5 | 0.00 | 0.00 | 0.00 | 74 | 1012.6 |
| 20260905172808 | 88 | 201 | 0.0 | 1.7 | 0.00 | 0.00 | 0.00 | 73 | 1012.8 |
| 20260905172306 | 88 | 82 | 0.0 | 4.3 | 0.00 | 0.00 | 0.00 | 74 | 1012.8 |
| 20260905171803 | 87 | 98 | 0.0 | 4.3 | 0.00 | 0.00 | 0.00 | 76 | 1012.5 |
| 20260905171259 | 87 | 90 | 3.5 | 3.5 | 0.00 | 0.00 | 0.00 | 76 | 1012.8 |
| 20260905170755 | 87 | 98 | 0.0 | 1.7 | 0.00 | 0.00 | 0.00 | 75 | 1012.8 |
| 20260905170251 | 88 | 90 | 0.0 | 2.6 | 0.00 | 0.00 | 0.00 | 76 | 1012.8 |
| 20260905165749 | 87 | 77 | 0.0 | 3.5 | 0.00 | 0.00 | 0.00 | 76 | 1012.9 |
| 20260905165246 | 87 | 81 | 0.9 | 3.5 | 0.00 | 0.00 | 0.00 | 78 | 1012.8 |
| 20260905164746 | 87 | 90 | 0.0 | 4.3 | 0.00 | 0.00 | 0.00 | 77 | 1012.9 |
| 20260905164240 | 87 | 90 | 0.0 | 2.6 | 0.00 | 0.00 | 0.00 | 78 | 1013.0 |
| 20260905163736 | 86 | 111 | 0.0 | 3.5 | 0.00 | 0.00 | 0.00 | 77 | 1013.1 |
| 20260905163232 | 86 | 90 | 1.7 | 2.6 | 0.00 | 0.00 | 0.00 | 78 | 1012.6 |
| 20260905162728 | 86 | 270 | 1.7 | 2.6 | 0.00 | 0.00 | 0.00 | 78 | 1012.9 |
| 20260905162227 | 86 | 86 | 0.0 | 4.3 | 0.00 | 0.00 | 0.00 | 79 | 1013.1 |
| 20260905161723 | 86 | 90 | 0.0 | 3.5 | 0.00 | 0.00 | 0.00 | 78 | 1013.1 |
| 20260905161221 | 86 | 86 | 0.0 | 6.1 | 0.00 | 0.00 | 0.00 | 79 | 1012.9 |
| 20260905160719 | 86 | 73 | 1.7 | 3.5 | 0.00 | 0.00 | 0.00 | 79 | 1013.0 |
| 20260905160214 | 85 | 74 | 0.0 | 2.6 | 0.00 | 0.00 | 0.00 | 80 | 1013.2 |
| 20260905155708 | 85 | 74 | 1.7 | 3.5 | 0.00 | 0.00 | 0.00 | 79 | 1012.8 |
| 20260905155207 | 85 | 90 | 3.5 | 5.2 | 0.00 | 0.00 | 0.00 | 80 | 1012.8 |
| 20260905154701 | 85 | 120 | 0.0 | 2.6 | 0.00 | 0.00 | 0.00 | 80 | 1012.7 |
| 20260905154157 | 86 | 117 | 2.6 | 4.3 | 0.00 | 0.00 | 0.00 | 80 | 1012.7 |
| 20260905153653 | 86 | 73 | 0.0 | 1.7 | 0.00 | 0.00 | 0.00 | 81 | 1012.6 |
| 20260905153148 | 86 | 94 | 0.0 | 4.3 | 0.00 | 0.00 | 0.00 | 79 | 1012.7 |
| 20260905152643 | 86 | 121 | 1.7 | 6.1 | 0.00 | 0.00 | 0.00 | 79 | 1012.5 |
| 20260905152138 | 86 | 103 | 0.9 | 2.6 | 0.00 | 0.00 | 0.00 | 80 | 1012.6 |
| 20260905151633 | 86 | 90 | 0.0 | 2.6 | 0.00 | 0.00 | 0.00 | 80 | 1012.4 |
| 20260905151128 | 86 | 66 | 0.0 | 2.6 | 0.00 | 0.00 | 0.00 | 82 | 1012.5 |
| 20260905150624 | 85 | 63 | 0.0 | 2.6 | 0.00 | 0.00 | 0.00 | 82 | 1012.4 |
| 20260905150122 | 85 | 77 | 1.7 | 3.5 | 0.00 | 0.00 | 0.00 | 83 | 1012.3 |
| 20260905145620 | 85 | 110 | 2.6 | 2.6 | 0.00 | 0.00 | 0.00 | 83 | 1012.4 |
| 20260905145119 | 84 | 90 | 0.0 | 2.6 | 0.00 | 0.00 | 0.00 | 84 | 1012.5 |
| 20260905144614 | 85 | 345 | 0.0 | 3.5 | 0.00 | 0.00 | 0.00 | 83 | 1012.4 |
| 20260905144113 | 85 | 77 | 0.0 | 1.7 | 0.00 | 0.00 | 0.00 | 83 | 1012.7 |
| 20260905143608 | 85 | 90 | 1.7 | 4.3 | 0.00 | 0.00 | 0.00 | 82 | 1012.2 |
| 20260905143103 | 85 | 114 | 0.0 | 3.5 | 0.00 | 0.00 | 0.00 | 82 | 1012.1 |
| 20260905142601 | 84 | 90 | 0.0 | 3.5 | 0.00 | 0.00 | 0.00 | 84 | 1012.1 |
| 20260905142056 | 84 | 90 | 1.7 | 2.6 | 0.00 | 0.00 | 0.00 | 84 | 1012.4 |
| 20260905141556 | 84 | 90 | 2.6 | 3.5 | 0.00 | 0.00 | 0.00 | 86 | 1012.0 |
| 20260905141052 | 83 | 77 | 0.9 | 2.6 | 0.00 | 0.00 | 0.00 | 88 | 1012.1 |
| 20260905140548 | 82 | 93 | 3.5 | 4.3 | 0.00 | 0.00 | 0.00 | 88 | 1011.8 |
| 20260905140046 | 83 | 90 | 1.7 | 4.3 | 0.00 | 0.00 | 0.00 | 88 | 1011.7 |
| 20260905135542 | 82 | 96 | 1.7 | 2.6 | 0.00 | 0.00 | 0.00 | 88 | 1011.7 |
| 20260905135036 | 82 | 82 | 0.0 | 1.7 | 0.00 | 0.00 | 0.00 | 88 | 1011.8 |
| 20260905134531 | 83 | 117 | 0.9 | 3.5 | 0.00 | 0.00 | 0.00 | 88 | 1012.1 |
| 20260905134029 | 82 | 90 | 0.0 | 3.5 | 0.00 | 0.00 | 0.00 | 88 | 1012.2 |
| 20260905133525 | 83 | 69 | 0.0 | 1.7 | 0.00 | 0.00 | 0.00 | 87 | 1012.2 |
| 20260905133020 | 83 | 279 | 0.0 | 2.6 | 0.00 | 0.00 | 0.00 | 87 | 1012.4 |
| 20260905132520 | 82 | 81 | 0.0 | 2.6 | 0.00 | 0.00 | 0.00 | 88 | 1012.4 |
| 20260905132020 | 82 | 277 | 2.6 | 3.5 | 0.00 | 0.00 | 0.00 | 88 | 1012.3 |
| 20260905131515 | 82 | 215 | 0.9 | 1.7 | 0.00 | 0.00 | 0.00 | 88 | 1012.1 |
| 20260905131010 | 82 | 346 | 0.0 | 2.6 | 0.00 | 0.00 | 0.00 | 88 | 1012.1 |
| 20260905130509 | 82 | 254 | 0.0 | 0.9 | 0.00 | 0.00 | 0.00 | 89 | 1011.9 |
| 20260905130005 | 81 | 270 | 0.0 | 1.7 | 0.00 | 0.00 | 0.00 | 89 | 1011.8 |
| 20260905125459 | 82 | 287 | 0.0 | 3.5 | 0.00 | 0.00 | 0.00 | 89 | 1011.8 |
| 20260905124954 | 81 | 294 | 1.7 | 2.6 | 0.00 | 0.00 | 0.00 | 88 | 1011.8 |
| 20260905124451 | 82 | 285 | 0.9 | 2.6 | 0.00 | 0.00 | 0.00 | 88 | 1011.6 |
| 20260905123946 | 82 | 263 | 0.0 | 1.7 | 0.00 | 0.00 | 0.00 | 89 | 1011.6 |
| 20260905123443 | 82 | 270 | 0.9 | 1.7 | 0.00 | 0.00 | 0.00 | 89 | 1011.7 |
| 20260905122943 | 81 | 338 | 0.0 | 2.6 | 0.00 | 0.00 | 0.00 | 90 | 1011.6 |
| 20260905122443 | 81 | 262 | 0.0 | 1.7 | 0.00 | 0.00 | 0.00 | 92 | 1011.3 |
| 20260905121938 | 80 | 303 | 1.7 | 1.7 | 0.00 | 0.00 | 0.00 | 94 | 1011.2 |